Year,Month,Day,Hour,Minute,Value (Times are PST for windgust in km/hr)
2006,02,04,00,00,19.30
2006,02,04,00,01,19.30
2006,02,04,00,02,25.70
2006,02,04,00,03,27.40
2006,02,04,00,04,35.40
2006,02,04,00,05,25.70
2006,02,04,00,06,25.70
2006,02,04,00,07,20.90
2006,02,04,00,08,22.50
2006,02,04,00,09,22.50
2006,02,04,00,10,25.70
2006,02,04,00,11,27.40
2006,02,04,00,12,20.90
2006,02,04,00,13,27.40
2006,02,04,00,14,22.50
2006,02,04,00,15,30.60
2006,02,04,00,16,27.40
2006,02,04,00,17,19.30
2006,02,04,00,18,25.70
2006,02,04,00,19,29.00
2006,02,04,00,20,20.90
2006,02,04,00,21,17.70
2006,02,04,00,22,16.10
2006,02,04,00,23,22.50
2006,02,04,00,24,24.20
2006,02,04,00,25,27.40
2006,02,04,00,26,27.40
2006,02,04,00,27,17.70
2006,02,04,00,28,9.60
2006,02,04,00,29,22.50
2006,02,04,00,30,24.20
2006,02,04,00,31,17.70
2006,02,04,00,32,22.50
2006,02,04,00,33,20.90
2006,02,04,00,34,20.90
2006,02,04,00,35,17.70
2006,02,04,00,36,20.90
2006,02,04,00,37,29.00
2006,02,04,00,38,24.20
2006,02,04,00,39,14.50
2006,02,04,00,40,16.10
2006,02,04,00,41,35.40
2006,02,04,00,42,30.60
2006,02,04,00,43,20.90
2006,02,04,00,44,19.30
2006,02,04,00,45,16.10
2006,02,04,00,46,22.50
2006,02,04,00,47,19.30
2006,02,04,00,48,22.50
2006,02,04,00,49,24.20
2006,02,04,00,50,19.30
2006,02,04,00,51,11.30
2006,02,04,00,52,9.60
2006,02,04,00,53,14.50
2006,02,04,00,54,9.60
2006,02,04,00,55,9.60
2006,02,04,00,56,11.30
2006,02,04,00,57,9.60
2006,02,04,00,58,16.10
2006,02,04,00,59,14.50
2006,02,04,01,00,11.30
2006,02,04,01,01,9.60
2006,02,04,01,02,9.60
2006,02,04,01,03,9.60
2006,02,04,01,04,8.10
2006,02,04,01,05,11.30
2006,02,04,01,06,6.40
2006,02,04,01,07,11.30
2006,02,04,01,08,11.30
2006,02,04,01,09,9.60
2006,02,04,01,10,9.60
2006,02,04,01,11,12.90
2006,02,04,01,12,9.60
2006,02,04,01,13,11.30
2006,02,04,01,14,19.30
2006,02,04,01,15,14.50
2006,02,04,01,16,11.30
2006,02,04,01,17,17.70
2006,02,04,01,18,11.30
2006,02,04,01,19,14.50
2006,02,04,01,20,11.30
2006,02,04,01,21,8.10
2006,02,04,01,22,8.10
2006,02,04,01,23,9.60
2006,02,04,01,24,11.30
2006,02,04,01,25,11.30
2006,02,04,01,26,9.60
2006,02,04,01,27,8.10
2006,02,04,01,28,8.10
2006,02,04,01,29,6.40
2006,02,04,01,30,14.50
2006,02,04,01,31,9.60
2006,02,04,01,32,9.60
2006,02,04,01,33,6.40
2006,02,04,01,34,9.60
2006,02,04,01,35,9.60
2006,02,04,01,36,8.10
2006,02,04,01,37,8.10
2006,02,04,01,38,8.10
2006,02,04,01,39,6.40
2006,02,04,01,40,6.40
2006,02,04,01,41,6.40
2006,02,04,01,42,9.60
2006,02,04,01,43,8.10
2006,02,04,01,44,9.60
2006,02,04,01,45,11.30
2006,02,04,01,46,9.60
2006,02,04,01,47,8.10
2006,02,04,01,48,16.10
2006,02,04,01,49,25.70
2006,02,04,01,50,27.40
2006,02,04,01,51,19.30
2006,02,04,01,52,8.10
2006,02,04,01,53,4.80
2006,02,04,01,54,4.80
2006,02,04,01,55,1.60
2006,02,04,01,56,1.60
2006,02,04,01,57,3.20
2006,02,04,01,58,3.20
2006,02,04,01,59,3.20
2006,02,04,02,00,4.80
2006,02,04,02,01,8.10
2006,02,04,02,02,8.10
2006,02,04,02,03,6.40
2006,02,04,02,04,6.40
2006,02,04,02,05,6.40
2006,02,04,02,06,4.80
2006,02,04,02,07,4.80
2006,02,04,02,08,4.80
2006,02,04,02,09,3.20
2006,02,04,02,10,4.80
2006,02,04,02,11,4.80
2006,02,04,02,12,6.40
2006,02,04,02,13,8.10
2006,02,04,02,14,6.40
2006,02,04,02,15,6.40
2006,02,04,02,16,6.40
2006,02,04,02,17,1.60
2006,02,04,02,18,1.60
2006,02,04,02,19,3.20
2006,02,04,02,20,3.20
2006,02,04,02,21,1.60
2006,02,04,02,22,3.20
2006,02,04,02,23,4.80
2006,02,04,02,24,4.80
2006,02,04,02,25,6.40
2006,02,04,02,26,4.80
2006,02,04,02,27,3.20
2006,02,04,02,28,3.20
2006,02,04,02,29,3.20
2006,02,04,02,30,3.20
2006,02,04,02,31,1.60
2006,02,04,02,32,4.80
2006,02,04,02,33,4.80
2006,02,04,02,34,4.80
2006,02,04,02,35,3.20
2006,02,04,02,36,4.80
2006,02,04,02,37,4.80
2006,02,04,02,38,4.80
2006,02,04,02,39,6.40
2006,02,04,02,40,4.80
2006,02,04,02,41,3.20
2006,02,04,02,42,1.60
2006,02,04,02,43,4.80
2006,02,04,02,44,3.20
2006,02,04,02,45,3.20
2006,02,04,02,46,3.20
2006,02,04,02,47,3.20
2006,02,04,02,48,4.80
2006,02,04,02,49,6.40
2006,02,04,02,50,4.80
2006,02,04,02,51,3.20
2006,02,04,02,52,8.10
2006,02,04,02,53,4.80
2006,02,04,02,54,6.40
2006,02,04,02,55,11.30
2006,02,04,02,56,3.20
2006,02,04,02,57,3.20
2006,02,04,02,58,1.60
2006,02,04,02,59,1.60
2006,02,04,03,00,1.60
2006,02,04,03,01,1.60
2006,02,04,03,02,1.60
2006,02,04,03,03,1.60
2006,02,04,03,04,1.60
2006,02,04,03,05,22.50
2006,02,04,03,06,19.30
2006,02,04,03,07,19.30
2006,02,04,03,08,17.70
2006,02,04,03,09,16.10
2006,02,04,03,10,32.20
2006,02,04,03,11,33.80
2006,02,04,03,12,32.20
2006,02,04,03,13,27.40
2006,02,04,03,14,22.50
2006,02,04,03,15,20.90
2006,02,04,03,16,24.20
2006,02,04,03,17,20.90
2006,02,04,03,18,24.20
2006,02,04,03,19,38.60
2006,02,04,03,20,29.00
2006,02,04,03,21,30.60
2006,02,04,03,22,32.20
2006,02,04,03,23,30.60
2006,02,04,03,24,16.10
2006,02,04,03,25,25.70
2006,02,04,03,26,24.20
2006,02,04,03,27,24.20
2006,02,04,03,28,24.20
2006,02,04,03,29,25.70
2006,02,04,03,30,27.40
2006,02,04,03,31,37.00
2006,02,04,03,32,33.80
2006,02,04,03,33,32.20
2006,02,04,03,34,30.60
2006,02,04,03,35,22.50
2006,02,04,03,36,25.70
2006,02,04,03,37,16.10
2006,02,04,03,38,14.50
2006,02,04,03,39,6.40
2006,02,04,03,40,20.90
2006,02,04,03,41,24.20
2006,02,04,03,42,27.40
2006,02,04,03,43,37.00
2006,02,04,03,44,27.40
2006,02,04,03,45,30.60
2006,02,04,03,46,30.60
2006,02,04,03,47,27.40
2006,02,04,03,48,32.20
2006,02,04,03,49,33.80
2006,02,04,03,50,32.20
2006,02,04,03,51,32.20
2006,02,04,03,52,37.00
2006,02,04,03,53,43.50
2006,02,04,03,54,32.20
2006,02,04,03,55,33.80
2006,02,04,03,56,41.80
2006,02,04,03,57,27.40
2006,02,04,03,58,33.80
2006,02,04,03,59,35.40
2006,02,04,04,00,38.60
2006,02,04,04,01,45.10
2006,02,04,04,02,41.80
2006,02,04,04,03,40.20
2006,02,04,04,04,29.00
2006,02,04,04,05,25.70
2006,02,04,04,06,20.90
2006,02,04,04,07,37.00
2006,02,04,04,08,43.50
2006,02,04,04,09,29.00
2006,02,04,04,10,32.20
2006,02,04,04,11,41.80
2006,02,04,04,12,41.80
2006,02,04,04,13,37.00
2006,02,04,04,14,41.80
2006,02,04,04,15,46.70
2006,02,04,04,16,33.80
2006,02,04,04,17,29.00
2006,02,04,04,18,45.10
2006,02,04,04,19,43.50
2006,02,04,04,20,29.00
2006,02,04,04,21,35.40
2006,02,04,04,22,35.40
2006,02,04,04,23,38.60
2006,02,04,04,24,29.00
2006,02,04,04,25,33.80
2006,02,04,04,26,24.20
2006,02,04,04,27,30.60
2006,02,04,04,28,30.60
2006,02,04,04,29,32.20
2006,02,04,04,30,29.00
2006,02,04,04,31,29.00
2006,02,04,04,32,25.70
2006,02,04,04,33,40.20
2006,02,04,04,34,38.60
2006,02,04,04,35,32.20
2006,02,04,04,36,22.50
2006,02,04,04,37,41.80
2006,02,04,04,38,25.70
2006,02,04,04,39,30.60
2006,02,04,04,40,29.00
2006,02,04,04,41,20.90
2006,02,04,04,42,11.30
2006,02,04,04,43,29.00
2006,02,04,04,44,30.60
2006,02,04,04,45,14.50
2006,02,04,04,46,20.90
2006,02,04,04,47,20.90
2006,02,04,04,48,20.90
2006,02,04,04,49,32.20
2006,02,04,04,50,22.50
2006,02,04,04,51,30.60
2006,02,04,04,52,37.00
2006,02,04,04,53,37.00
2006,02,04,04,54,11.30
2006,02,04,04,55,27.40
2006,02,04,04,56,40.20
2006,02,04,04,57,32.20
2006,02,04,04,58,22.50
2006,02,04,04,59,40.20
2006,02,04,05,00,33.80
2006,02,04,05,01,41.80
2006,02,04,05,02,33.80
2006,02,04,05,03,38.60
2006,02,04,05,04,32.20
2006,02,04,05,05,41.80
2006,02,04,05,06,41.80
2006,02,04,05,07,41.80
2006,02,04,05,08,45.10
2006,02,04,05,09,51.50
2006,02,04,05,10,40.20
2006,02,04,05,11,32.20
2006,02,04,05,12,35.40
2006,02,04,05,13,35.40
2006,02,04,05,14,29.00
2006,02,04,05,15,37.00
2006,02,04,05,16,38.60
2006,02,04,05,17,25.70
2006,02,04,05,18,38.60
2006,02,04,05,19,38.60
2006,02,04,05,20,29.00
2006,02,04,05,21,46.70
2006,02,04,05,22,38.60
2006,02,04,05,23,37.00
2006,02,04,05,24,40.20
2006,02,04,05,25,20.90
2006,02,04,05,26,40.20
2006,02,04,05,27,37.00
2006,02,04,05,28,22.50
2006,02,04,05,29,27.40
2006,02,04,05,30,35.40
2006,02,04,05,31,30.60
2006,02,04,05,32,41.80
2006,02,04,05,33,38.60
2006,02,04,05,34,40.20
2006,02,04,05,35,38.60
2006,02,04,05,36,38.60
2006,02,04,05,37,40.20
2006,02,04,05,38,37.00
2006,02,04,05,39,37.00
2006,02,04,05,40,27.40
2006,02,04,05,41,45.10
2006,02,04,05,42,40.20
2006,02,04,05,43,43.50
2006,02,04,05,44,32.20
2006,02,04,05,45,51.50
2006,02,04,05,46,27.40
2006,02,04,05,47,35.40
2006,02,04,05,48,29.00
2006,02,04,05,49,38.60
2006,02,04,05,50,29.00
2006,02,04,05,51,25.70
2006,02,04,05,52,30.60
2006,02,04,05,53,25.70
2006,02,04,05,54,29.00
2006,02,04,05,55,20.90
2006,02,04,05,56,30.60
2006,02,04,05,57,27.40
2006,02,04,05,58,45.10
2006,02,04,05,59,33.80
2006,02,04,06,00,24.20
2006,02,04,06,01,27.40
2006,02,04,06,02,22.50
2006,02,04,06,03,17.70
2006,02,04,06,04,30.60
2006,02,04,06,05,17.70
2006,02,04,06,06,24.20
2006,02,04,06,07,35.40
2006,02,04,06,08,30.60
2006,02,04,06,09,45.10
2006,02,04,06,10,35.40
2006,02,04,06,11,37.00
2006,02,04,06,12,32.20
2006,02,04,06,13,25.70
2006,02,04,06,14,30.60
2006,02,04,06,15,37.00
2006,02,04,06,16,22.50
2006,02,04,06,17,24.20
2006,02,04,06,18,16.10
2006,02,04,06,19,35.40
2006,02,04,06,20,35.40
2006,02,04,06,21,25.70
2006,02,04,06,22,29.00
2006,02,04,06,23,27.40
2006,02,04,06,24,27.40
2006,02,04,06,25,22.50
2006,02,04,06,26,30.60
2006,02,04,06,27,38.60
2006,02,04,06,28,41.80
2006,02,04,06,29,41.80
2006,02,04,06,30,38.60
2006,02,04,06,31,25.70
2006,02,04,06,32,29.00
2006,02,04,06,33,37.00
2006,02,04,06,34,48.30
2006,02,04,06,35,41.80
2006,02,04,06,36,37.00
2006,02,04,06,37,45.10
2006,02,04,06,38,35.40
2006,02,04,06,39,43.50
2006,02,04,06,40,30.60
2006,02,04,06,41,43.50
2006,02,04,06,42,41.80
2006,02,04,06,43,37.00
2006,02,04,06,44,51.50
2006,02,04,06,45,33.80
2006,02,04,06,46,40.20
2006,02,04,06,47,51.50
2006,02,04,06,48,37.00
2006,02,04,06,49,29.00
2006,02,04,06,50,30.60
2006,02,04,06,51,35.40
2006,02,04,06,52,35.40
2006,02,04,06,53,45.10
2006,02,04,06,54,22.50
2006,02,04,06,55,32.20
2006,02,04,06,56,46.70
2006,02,04,06,57,45.10
2006,02,04,06,58,32.20
2006,02,04,06,59,27.40
2006,02,04,07,00,29.00
2006,02,04,07,01,20.90
2006,02,04,07,02,40.20
2006,02,04,07,03,45.10
2006,02,04,07,04,43.50
2006,02,04,07,05,51.50
2006,02,04,07,06,40.20
2006,02,04,07,07,37.00
2006,02,04,07,08,27.40
2006,02,04,07,09,32.20
2006,02,04,07,10,45.10
2006,02,04,07,11,46.70
2006,02,04,07,12,32.20
2006,02,04,07,13,35.40
2006,02,04,07,14,37.00
2006,02,04,07,15,20.90
2006,02,04,07,16,27.40
2006,02,04,07,17,41.80
2006,02,04,07,18,48.30
2006,02,04,07,19,33.80
2006,02,04,07,20,37.00
2006,02,04,07,21,46.70
2006,02,04,07,22,33.80
2006,02,04,07,23,64.40
2006,02,04,07,24,35.40
2006,02,04,07,25,46.70
2006,02,04,07,26,38.60
2006,02,04,07,27,49.90
2006,02,04,07,28,32.20
2006,02,04,07,29,53.10
2006,02,04,07,30,48.30
2006,02,04,07,31,41.80
2006,02,04,07,32,33.80
2006,02,04,07,33,33.80
2006,02,04,07,34,45.10
2006,02,04,07,35,40.20
2006,02,04,07,36,46.70
2006,02,04,07,37,40.20
2006,02,04,07,38,46.70
2006,02,04,07,39,46.70
2006,02,04,07,40,38.60
2006,02,04,07,41,41.80
2006,02,04,07,42,49.90
2006,02,04,07,43,46.70
2006,02,04,07,44,35.40
2006,02,04,07,45,45.10
2006,02,04,07,46,51.50
2006,02,04,07,47,49.90
2006,02,04,07,48,38.60
2006,02,04,07,49,43.50
2006,02,04,07,50,35.40
2006,02,04,07,51,62.70
2006,02,04,07,52,38.60
2006,02,04,07,53,45.10
2006,02,04,07,54,33.80
2006,02,04,07,55,33.80
2006,02,04,07,56,35.40
2006,02,04,07,57,46.70
2006,02,04,07,58,41.80
2006,02,04,07,59,41.80
2006,02,04,08,00,40.20
2006,02,04,08,01,49.90
2006,02,04,08,02,45.10
2006,02,04,08,03,38.60
2006,02,04,08,04,38.60
2006,02,04,08,05,41.80
2006,02,04,08,06,35.40
2006,02,04,08,07,30.60
2006,02,04,08,08,33.80
2006,02,04,08,09,46.70
2006,02,04,08,10,53.10
2006,02,04,08,11,38.60
2006,02,04,08,12,49.90
2006,02,04,08,13,40.20
2006,02,04,08,14,38.60
2006,02,04,08,15,37.00
2006,02,04,08,16,33.80
2006,02,04,08,17,22.50
2006,02,04,08,18,45.10
2006,02,04,08,19,45.10
2006,02,04,08,20,33.80
2006,02,04,08,21,32.20
2006,02,04,08,22,35.40
2006,02,04,08,23,53.10
2006,02,04,08,24,46.70
2006,02,04,08,25,46.70
2006,02,04,08,26,33.80
2006,02,04,08,27,48.30
2006,02,04,08,28,30.60
2006,02,04,08,29,38.60
2006,02,04,08,30,43.50
2006,02,04,08,31,38.60
2006,02,04,08,32,38.60
2006,02,04,08,33,38.60
2006,02,04,08,34,43.50
2006,02,04,08,35,27.40
2006,02,04,08,36,20.90
2006,02,04,08,37,29.00
2006,02,04,08,38,27.40
2006,02,04,08,39,35.40
2006,02,04,08,40,35.40
2006,02,04,08,41,30.60
2006,02,04,08,42,27.40
2006,02,04,08,43,20.90
2006,02,04,08,44,22.50
2006,02,04,08,45,22.50
2006,02,04,08,46,33.80
2006,02,04,08,47,33.80
2006,02,04,08,48,32.20
2006,02,04,08,49,29.00
2006,02,04,08,50,30.60
2006,02,04,08,51,30.60
2006,02,04,08,52,22.50
2006,02,04,08,53,33.80
2006,02,04,08,54,25.70
2006,02,04,08,55,25.70
2006,02,04,08,56,38.60
2006,02,04,08,57,32.20
2006,02,04,08,58,35.40
2006,02,04,08,59,35.40
2006,02,04,09,00,41.80
2006,02,04,09,01,29.00
2006,02,04,09,02,22.50
2006,02,04,09,03,19.30
2006,02,04,09,04,53.10
2006,02,04,09,05,53.10
2006,02,04,09,06,53.10
2006,02,04,09,07,41.80
2006,02,04,09,08,30.60
2006,02,04,09,09,33.80
2006,02,04,09,10,38.60
2006,02,04,09,11,53.10
2006,02,04,09,12,24.20
2006,02,04,09,13,27.40
2006,02,04,09,14,43.50
2006,02,04,09,15,38.60
2006,02,04,09,16,32.20
2006,02,04,09,17,41.80
2006,02,04,09,18,51.50
2006,02,04,09,19,40.20
2006,02,04,09,20,35.40
2006,02,04,09,21,41.80
2006,02,04,09,22,45.10
2006,02,04,09,23,33.80
2006,02,04,09,24,40.20
2006,02,04,09,25,41.80
2006,02,04,09,26,41.80
2006,02,04,09,27,27.40
2006,02,04,09,28,33.80
2006,02,04,09,29,40.20
2006,02,04,09,30,46.70
2006,02,04,09,31,51.50
2006,02,04,09,32,35.40
2006,02,04,09,33,30.60
2006,02,04,09,34,25.70
2006,02,04,09,35,38.60
2006,02,04,09,36,37.00
2006,02,04,09,37,33.80
2006,02,04,09,38,33.80
2006,02,04,09,39,48.30
2006,02,04,09,40,48.30
2006,02,04,09,41,41.80
2006,02,04,09,42,49.90
2006,02,04,09,43,46.70
2006,02,04,09,44,49.90
2006,02,04,09,45,40.20
2006,02,04,09,46,38.60
2006,02,04,09,47,46.70
2006,02,04,09,48,49.90
2006,02,04,09,49,48.30
2006,02,04,09,50,53.10
2006,02,04,09,51,49.90
2006,02,04,09,52,48.30
2006,02,04,09,53,45.10
2006,02,04,09,54,45.10
2006,02,04,09,55,57.90
2006,02,04,09,56,43.50
2006,02,04,09,57,45.10
2006,02,04,09,58,41.80
2006,02,04,09,59,41.80
2006,02,04,10,00,62.70
2006,02,04,10,01,53.10
2006,02,04,10,02,53.10
2006,02,04,10,03,62.70
2006,02,04,10,04,56.30
2006,02,04,10,05,49.90
2006,02,04,10,06,56.30
2006,02,04,10,07,59.50
2006,02,04,10,08,59.50
2006,02,04,10,09,53.10
2006,02,04,10,10,54.70
2006,02,04,10,11,57.90
2006,02,04,10,12,48.30
2006,02,04,10,13,57.90
2006,02,04,10,14,74.00
2006,02,04,10,15,62.70
2006,02,04,10,16,54.70
2006,02,04,10,17,69.20
2006,02,04,10,18,53.10
2006,02,04,10,19,48.30
2006,02,04,10,20,59.50
2006,02,04,10,21,59.50
2006,02,04,10,22,46.70
2006,02,04,10,23,51.50
2006,02,04,10,24,53.10
2006,02,04,10,25,49.90
2006,02,04,10,26,49.90
2006,02,04,10,27,67.60
2006,02,04,10,28,59.50
2006,02,04,10,29,38.60
2006,02,04,10,30,37.00
2006,02,04,10,31,49.90
2006,02,04,10,32,49.90
2006,02,04,10,33,54.70
2006,02,04,10,34,35.40
2006,02,04,10,35,37.00
2006,02,04,10,36,41.80
2006,02,04,10,37,64.40
2006,02,04,10,38,66.00
2006,02,04,10,39,53.10
2006,02,04,10,40,49.90
2006,02,04,10,41,37.00
2006,02,04,10,42,48.30
2006,02,04,10,43,64.40
2006,02,04,10,44,53.10
2006,02,04,10,45,51.50
2006,02,04,10,46,54.70
2006,02,04,10,47,59.50
2006,02,04,10,48,67.60
2006,02,04,10,49,54.70
2006,02,04,10,50,38.60
2006,02,04,10,51,49.90
2006,02,04,10,52,54.70
2006,02,04,10,53,61.20
2006,02,04,10,54,41.80
2006,02,04,10,55,54.70
2006,02,04,10,56,45.10
2006,02,04,10,57,45.10
2006,02,04,10,58,35.40
2006,02,04,10,59,41.80
2006,02,04,11,00,38.60
2006,02,04,11,01,45.10
2006,02,04,11,02,56.30
2006,02,04,11,03,57.90
2006,02,04,11,04,37.00
2006,02,04,11,05,57.90
2006,02,04,11,06,51.50
2006,02,04,11,07,51.50
2006,02,04,11,08,70.80
2006,02,04,11,09,59.50
2006,02,04,11,10,53.10
2006,02,04,11,11,49.90
2006,02,04,11,12,53.10
2006,02,04,11,13,64.40
2006,02,04,11,14,45.10
2006,02,04,11,15,46.70
2006,02,04,11,16,64.40
2006,02,04,11,17,30.60
2006,02,04,11,18,49.90
2006,02,04,11,19,49.90
2006,02,04,11,20,43.50
2006,02,04,11,21,48.30
2006,02,04,11,22,45.10
2006,02,04,11,23,49.90
2006,02,04,11,24,67.60
2006,02,04,11,25,53.10
2006,02,04,11,26,46.70
2006,02,04,11,27,56.30
2006,02,04,11,28,49.90
2006,02,04,11,29,78.80
2006,02,04,11,30,54.70
2006,02,04,11,31,64.40
2006,02,04,11,32,64.40
2006,02,04,11,33,48.30
2006,02,04,11,34,64.40
2006,02,04,11,35,69.20
2006,02,04,11,36,64.40
2006,02,04,11,37,64.40
2006,02,04,11,38,69.20
2006,02,04,11,39,56.30
2006,02,04,11,40,69.20
2006,02,04,11,41,54.70
2006,02,04,11,42,54.70
2006,02,04,11,43,53.10
2006,02,04,11,44,54.70
2006,02,04,11,45,59.50
2006,02,04,11,46,56.30
2006,02,04,11,47,57.90
2006,02,04,11,48,41.80
2006,02,04,11,49,41.80
2006,02,04,11,50,61.20
2006,02,04,11,51,62.70
2006,02,04,11,52,62.70
2006,02,04,11,53,64.40
2006,02,04,11,54,64.40
2006,02,04,11,55,49.90
2006,02,04,11,56,33.80
2006,02,04,11,57,48.30
2006,02,04,11,58,56.30
2006,02,04,11,59,53.10
2006,02,04,12,00,48.30
2006,02,04,12,01,48.30
2006,02,04,12,02,54.70
2006,02,04,12,03,53.10
2006,02,04,12,04,59.50
2006,02,04,12,05,53.10
2006,02,04,12,06,59.50
2006,02,04,12,07,62.70
2006,02,04,12,08,61.20
2006,02,04,12,09,64.40
2006,02,04,12,10,59.50
2006,02,04,12,11,38.60
2006,02,04,14,17,61.20
2006,02,04,14,18,66.00
2006,02,04,14,19,64.40
2006,02,04,14,20,53.10
2006,02,04,14,21,38.60
2006,02,04,14,22,38.60
2006,02,04,14,23,32.20
2006,02,04,14,24,54.70
2006,02,04,14,25,49.90
2006,02,04,14,26,49.90
2006,02,04,14,27,49.90
2006,02,04,14,28,49.90
2006,02,04,14,29,49.90
2006,02,04,14,30,51.50
2006,02,04,14,31,78.80
2006,02,04,14,32,64.40
2006,02,04,14,33,57.90
2006,02,04,14,34,62.70
2006,02,04,14,35,62.70
2006,02,04,14,36,66.00
2006,02,04,14,37,64.40
2006,02,04,14,38,53.10
2006,02,04,14,39,59.50
2006,02,04,14,40,53.10
2006,02,04,14,41,61.20
2006,02,04,14,42,41.80
2006,02,04,14,43,67.60
2006,02,04,14,44,53.10
2006,02,04,14,45,56.30
2006,02,04,14,46,49.90
2006,02,04,14,47,57.90
2006,02,04,14,48,48.30
2006,02,04,14,49,64.40
2006,02,04,14,50,62.70
2006,02,04,14,51,56.30
2006,02,04,14,52,51.50
2006,02,04,14,53,57.90
2006,02,04,14,54,69.20
2006,02,04,14,55,69.20
2006,02,04,14,56,62.70
2006,02,04,14,57,75.60
2006,02,04,14,58,72.40
2006,02,04,14,59,62.70
2006,02,04,15,00,53.10
2006,02,04,15,01,75.60
2006,02,04,15,02,48.30
2006,02,04,15,03,69.20
2006,02,04,15,04,69.20
2006,02,04,15,05,49.90
2006,02,04,15,06,54.70
2006,02,04,15,07,66.00
2006,02,04,15,08,67.60
2006,02,04,15,09,59.50
2006,02,04,15,10,51.50
2006,02,04,15,11,64.40
2006,02,04,15,12,53.10
2006,02,04,15,13,66.00
2006,02,04,15,14,69.20
2006,02,04,15,15,56.30
2006,02,04,15,16,74.00
2006,02,04,15,17,56.30
2006,02,04,15,18,54.70
2006,02,04,15,19,77.30
2006,02,04,15,20,78.80
2006,02,04,15,21,74.00
2006,02,04,15,22,59.50
2006,02,04,15,23,72.40
2006,02,04,15,24,61.20
2006,02,04,15,25,78.80
2006,02,04,15,26,75.60
2006,02,04,15,27,70.80
2006,02,04,15,28,64.40
2006,02,04,15,29,78.80
2006,02,04,15,30,64.40
2006,02,04,15,31,75.60
2006,02,04,15,32,54.70
2006,02,04,15,33,78.80
2006,02,04,15,34,72.40
2006,02,04,15,35,62.70
2006,02,04,15,36,57.90
2006,02,04,15,37,53.10
2006,02,04,15,38,72.40
2006,02,04,15,39,66.00
2006,02,04,15,40,67.60
2006,02,04,15,41,64.40
2006,02,04,15,42,66.00
2006,02,04,15,43,69.20
2006,02,04,15,44,54.70
2006,02,04,15,45,54.70
2006,02,04,15,46,54.70
2006,02,04,15,47,37.00
2006,02,04,15,48,51.50
2006,02,04,15,49,61.20
2006,02,04,15,50,51.50
2006,02,04,15,51,59.50
2006,02,04,15,52,57.90
2006,02,04,15,53,57.90
2006,02,04,15,54,77.30
2006,02,04,15,55,64.40
2006,02,04,15,56,59.50
2006,02,04,15,57,62.70
2006,02,04,15,58,53.10
2006,02,04,15,59,64.40
2006,02,04,16,00,62.70
2006,02,04,16,01,53.10
2006,02,04,16,02,56.30
2006,02,04,16,03,59.50
2006,02,04,16,04,53.10
2006,02,04,16,05,53.10
2006,02,04,16,06,61.20
2006,02,04,16,07,64.40
2006,02,04,16,08,54.70
2006,02,04,16,09,64.40
2006,02,04,16,10,61.20
2006,02,04,16,11,53.10
2006,02,04,16,12,49.90
2006,02,04,16,13,57.90
2006,02,04,16,14,64.40
2006,02,04,16,15,67.60
2006,02,04,16,16,66.00
2006,02,04,16,17,72.40
2006,02,04,16,18,46.70
2006,02,04,16,19,61.20
2006,02,04,16,20,57.90
2006,02,04,16,21,61.20
2006,02,04,16,22,57.90
2006,02,04,16,23,64.40
2006,02,04,16,24,59.50
2006,02,04,16,25,56.30
2006,02,04,16,26,67.60
2006,02,04,16,27,62.70
2006,02,04,16,28,56.30
2006,02,04,16,29,53.10
2006,02,04,16,30,69.20
2006,02,04,16,31,61.20
2006,02,04,16,32,57.90
2006,02,04,16,33,64.40
2006,02,04,16,34,59.50
2006,02,04,16,35,72.40
2006,02,04,16,36,64.40
2006,02,04,16,37,59.50
2006,02,04,16,38,72.40
2006,02,04,16,39,54.70
2006,02,04,16,40,53.10
2006,02,04,16,41,57.90
2006,02,04,16,42,54.70
2006,02,04,16,43,67.60
2006,02,04,16,44,57.90
2006,02,04,16,45,59.50
2006,02,04,16,46,59.50
2006,02,04,16,47,69.20
2006,02,04,16,48,56.30
2006,02,04,16,49,57.90
2006,02,04,16,50,57.90
2006,02,04,16,51,59.50
2006,02,04,16,52,59.50
2006,02,04,16,53,56.30
2006,02,04,16,54,57.90
2006,02,04,16,55,46.70
2006,02,04,16,56,54.70
2006,02,04,16,57,61.20
2006,02,04,16,58,59.50
2006,02,04,16,59,70.80
2006,02,04,17,00,62.70
2006,02,04,17,01,49.90
2006,02,04,17,02,49.90
2006,02,04,17,03,45.10
2006,02,04,17,04,66.00
2006,02,04,17,05,61.20
2006,02,04,17,06,64.40
2006,02,04,17,07,56.30
2006,02,04,17,08,64.40
2006,02,04,17,09,64.40
2006,02,04,17,10,40.20
2006,02,04,17,11,38.60
2006,02,04,17,12,56.30
2006,02,04,17,13,51.50
2006,02,04,17,14,54.70
2006,02,04,17,15,53.10
2006,02,04,17,16,61.20
2006,02,04,17,17,53.10
2006,02,04,17,18,54.70
2006,02,04,17,19,66.00
2006,02,04,17,20,48.30
2006,02,04,17,21,53.10
2006,02,04,17,22,61.20
2006,02,04,17,23,49.90
2006,02,04,17,24,57.90
2006,02,04,17,25,59.50
2006,02,04,17,26,70.80
2006,02,04,17,27,54.70
2006,02,04,17,28,43.50
2006,02,04,17,29,51.50
2006,02,04,17,30,49.90
2006,02,04,17,31,46.70
2006,02,04,17,32,57.90
2006,02,04,17,33,35.40
2006,02,04,17,34,53.10
2006,02,04,17,35,48.30
2006,02,04,17,36,49.90
2006,02,04,17,37,45.10
2006,02,04,17,38,38.60
2006,02,04,17,39,37.00
2006,02,04,17,40,38.60
2006,02,04,17,41,51.50
2006,02,04,17,42,41.80
2006,02,04,17,43,40.20
2006,02,04,17,44,53.10
2006,02,04,17,45,48.30
2006,02,04,17,46,48.30
2006,02,04,17,47,48.30
2006,02,04,17,48,53.10
2006,02,04,17,49,53.10
2006,02,04,17,50,37.00
2006,02,04,17,51,37.00
2006,02,04,17,52,30.60
2006,02,04,17,53,53.10
2006,02,04,17,54,41.80
2006,02,04,17,55,45.10
2006,02,04,17,56,40.20
2006,02,04,17,57,35.40
2006,02,04,17,58,37.00
2006,02,04,17,59,38.60
2006,02,04,18,00,53.10
2006,02,04,18,01,37.00
2006,02,04,18,02,38.60
2006,02,04,18,03,41.80
2006,02,04,18,04,35.40
2006,02,04,18,05,51.50
2006,02,04,18,06,46.70
2006,02,04,18,07,35.40
2006,02,04,18,08,40.20
2006,02,04,18,09,56.30
2006,02,04,18,10,43.50
2006,02,04,18,11,53.10
2006,02,04,18,12,53.10
2006,02,04,18,13,46.70
2006,02,04,18,14,32.20
2006,02,04,18,15,20.90
2006,02,04,18,16,20.90
2006,02,04,18,17,40.20
2006,02,04,18,18,40.20
2006,02,04,18,19,59.50
2006,02,04,18,20,49.90
2006,02,04,18,21,43.50
2006,02,04,18,22,35.40
2006,02,04,18,23,57.90
2006,02,04,18,24,33.80
2006,02,04,18,25,40.20
2006,02,04,18,26,38.60
2006,02,04,18,27,38.60
2006,02,04,18,28,48.30
2006,02,04,18,29,37.00
2006,02,04,18,30,46.70
2006,02,04,18,31,56.30
2006,02,04,18,32,45.10
2006,02,04,18,33,40.20
2006,02,04,18,34,49.90
2006,02,04,18,35,35.40
2006,02,04,18,36,33.80
2006,02,04,18,37,37.00
2006,02,04,18,38,35.40
2006,02,04,18,39,25.70
2006,02,04,18,40,43.50
2006,02,04,18,41,25.70
2006,02,04,18,42,51.50
2006,02,04,18,43,33.80
2006,02,04,18,44,22.50
2006,02,04,18,45,38.60
2006,02,04,18,46,35.40
2006,02,04,18,47,40.20
2006,02,04,18,48,32.20
2006,02,04,18,49,33.80
2006,02,04,18,50,37.00
2006,02,04,18,51,40.20
2006,02,04,18,52,41.80
2006,02,04,18,53,27.40
2006,02,04,18,54,11.30
2006,02,04,18,55,11.30
2006,02,04,18,56,11.30
2006,02,04,18,57,24.20
2006,02,04,18,58,27.40
2006,02,04,18,59,30.60
2006,02,04,19,00,27.40
2006,02,04,19,01,25.70
2006,02,04,19,02,29.00
2006,02,04,19,03,35.40
2006,02,04,19,04,37.00
2006,02,04,19,05,20.90
2006,02,04,19,06,20.90
2006,02,04,19,07,38.60
2006,02,04,19,08,22.50
2006,02,04,19,09,20.90
2006,02,04,19,10,20.90
2006,02,04,19,11,20.90
2006,02,04,19,12,22.50
2006,02,04,19,13,17.70
2006,02,04,19,14,32.20
2006,02,04,19,15,29.00
2006,02,04,19,16,22.50
2006,02,04,19,17,35.40
2006,02,04,19,18,22.50
2006,02,04,19,19,16.10
2006,02,04,19,20,22.50
2006,02,04,19,21,32.20
2006,02,04,19,22,32.20
2006,02,04,19,23,40.20
2006,02,04,19,24,19.30
2006,02,04,19,25,29.00
2006,02,04,19,26,38.60
2006,02,04,19,27,27.40
2006,02,04,19,28,38.60
2006,02,04,19,29,32.20